Location: Peach Mountain Observatory
(42.3967°N, 83.9367°W)
Time: 13:16:51
(UTC-05:00)

Transit 2A - Visible Passes

Search period start: 27 January 2020 00:00
Search period end: 06 February 2020 00:00
Orbit: 601 x 958 km, 66.7° (Epoch: 27 January)

Date Brightness Start Highest point End Pass type
(mag) Time Alt. Az. Time Alt. Az. Time Alt. Az.
27 Jan 7.2 05:34:08 29° S 05:34:08 29° S 05:37:02 10° S visible
27 Jan 7.4 18:28:04 10° SE 18:30:04 13° ESE 18:31:27 11° E visible
27 Jan 6.2 20:08:17 10° SW 20:12:00 53° W 20:12:00 53° W visible
28 Jan 8.1 05:01:51 17° SSE 05:01:51 17° SSE 05:03:09 10° SSE visible
28 Jan 5.4 19:34:06 10° SSW 19:38:31 86° ESE 19:39:35 51° NE visible
29 Jan 5.6 19:00:08 10° SSW 19:04:26 54° ESE 19:07:07 21° NE visible
29 Jan 8.0 20:44:52 10° W 20:47:39 18° NW 20:47:39 18° NW visible
30 Jan 6.3 18:26:25 10° S 18:30:24 34° ESE 18:34:20 10° NE visible
30 Jan 7.5 20:09:55 10° WSW 20:13:34 25° NW 20:15:05 21° NNW visible
31 Jan 6.9 19:35:15 10° WSW 19:39:18 37° NW 19:42:27 15° N visible
01 Feb 6.1 19:00:48 10° SW 19:05:06 56° NW 19:09:23 10° NNE visible
02 Feb 5.6 18:26:34 10° SSW 18:30:57 87° NW 18:35:19 10° NNE visible
02 Feb 8.3 20:12:58 10° WNW 20:14:48 12° NW 20:16:37 10° NNW visible
03 Feb 8.1 19:37:32 10° W 19:40:23 17° NW 19:43:17 10° N visible
04 Feb 7.6 19:02:31 10° WSW 19:06:03 24° NW 19:09:36 10° N visible
05 Feb 7.1 18:27:48 10° WSW 18:31:46 34° NW 18:35:46 10° NNE visible
